• In Österreich
  • Länderverzeichnis
  • Für 7 Tage
  • Wassertemperatur
  • Satellitenkarten
  • Wetterkarte
  • News
  • Widgets
  • user-avatar
    Anmelden

    Stündliche Wetter Kitzbühel

    Heute, 27 Mai, Sonntag

    Zeit Temperatur Niederschläge Wind Luftdruck Luftfeuchtigkeit
    00:00 +13°C° 0 mm 1 m/S 680 mmHg 90%
    01:00 +13°C° 0 mm 1 m/S 680 mmHg 90%
    02:00 +12°C° 0 mm 1 m/S 680 mmHg 89%
    03:00 +12°C° 0 mm 1 m/S 680 mmHg 89%
    04:00 +12°C° 0 mm 1 m/S 679 mmHg 88%
    05:00 +14°C° 0 mm 1 m/S 680 mmHg 84%
    06:00 +16°C° 0 mm 1 m/S 680 mmHg 80%
    07:00 +18°C° 0 mm 1 m/S 681 mmHg 75%
    08:00 +20°C° 0,1 mm 1 m/S 681 mmHg 67%
    09:00 +22°C° 0,1 mm 1 m/S 681 mmHg 59%
    10:00 +24°C° 0,1 mm 1 m/S 681 mmHg 50%
    11:00 +25°C° 0,3 mm 1 m/S 681 mmHg 49%
    12:00 +25°C° 0,3 mm 1 m/S 681 mmHg 49%
    13:00 +25°C° 0,3 mm 1 m/S 681 mmHg 48%
    14:00 +25°C° 0,4 mm 1 m/S 681 mmHg 51%
    15:00 +24°C° 0,4 mm 1 m/S 681 mmHg 54%
    16:00 +24°C° 0,4 mm 1 m/S 680 mmHg 57%
    17:00 +23°C° 0,5 mm 1 m/S 680 mmHg 65%
    18:00 +21°C° 0,5 mm 1 m/S 680 mmHg 73%
    19:00 +20°C° 0,5 mm 1 m/S 680 mmHg 81%
    20:00 +18°C° 0,1 mm 1 m/S 680 mmHg 82%
    21:00 +16°C° 0,1 mm 1 m/S 680 mmHg 83%
    22:00 +15°C° 0,1 mm 1 m/S 679 mmHg 83%
    23:00 +14°C° 0 mm 1 m/S 679 mmHg 83%

    Morgen, 28 Mai, Montag

    Zeit Temperatur Niederschläge Wind Luftdruck Luftfeuchtigkeit
    00:00 +14°C° 0 mm 1 m/S 679 mmHg 83%
    01:00 +13°C° 0 mm 1 m/S 679 mmHg 82%
    02:00 +13°C° 0 mm 1 m/S 679 mmHg 82%
    03:00 +13°C° 0 mm 1 m/S 679 mmHg 81%
    04:00 +12°C° 0 mm 1 m/S 679 mmHg 81%
    05:00 +14°C° 0 mm 1 m/S 679 mmHg 76%
    06:00 +16°C° 0 mm 1 m/S 680 mmHg 72%
    07:00 +19°C° 0 mm 1 m/S 680 mmHg 67%
    08:00 +21°C° 0 mm 1 m/S 680 mmHg 59%
    09:00 +23°C° 0 mm 1 m/S 681 mmHg 51%
    10:00 +26°C° 0 mm 1 m/S 681 mmHg 43%
    11:00 +26°C° 0,2 mm 1 m/S 681 mmHg 43%
    12:00 +27°C° 0,2 mm 2 m/S 681 mmHg 43%
    13:00 +28°C° 0,2 mm 2 m/S 681 mmHg 43%
    14:00 +27°C° 0,3 mm 2 m/S 680 mmHg 46%
    15:00 +26°C° 0,3 mm 2 m/S 680 mmHg 48%
    16:00 +26°C° 0,3 mm 2 m/S 679 mmHg 51%
    17:00 +24°C° 0,3 mm 2 m/S 679 mmHg 60%
    18:00 +23°C° 0,3 mm 2 m/S 679 mmHg 69%
    19:00 +20°C° 0,3 mm 2 m/S 678 mmHg 79%
    20:00 +19°C° 0,1 mm 2 m/S 678 mmHg 81%
    21:00 +17°C° 0,1 mm 2 m/S 678 mmHg 84%
    22:00 +16°C° 0,1 mm 2 m/S 678 mmHg 86%
    23:00 +15°C° 0 mm 2 m/S 678 mmHg 86%

    übermorgen, 29 Mai, Dienstag

    Zeit Temperatur Niederschläge Wind Luftdruck Luftfeuchtigkeit
    00:00 +15°C° 0 mm 2 m/S 678 mmHg 86%
    01:00 +14°C° 0 mm 2 m/S 678 mmHg 87%
    02:00 +14°C° 0 mm 2 m/S 677 mmHg 86%
    03:00 +14°C° 0 mm 2 m/S 677 mmHg 86%
    04:00 +14°C° 0 mm 2 m/S 677 mmHg 86%
    05:00 +15°C° 0 mm 2 m/S 677 mmHg 82%
    06:00 +17°C° 0 mm 2 m/S 677 mmHg 77%
    07:00 +19°C° 0 mm 1 m/S 678 mmHg 73%
    08:00 +20°C° 0 mm 2 m/S 678 mmHg 66%
    09:00 +21°C° 0 mm 2 m/S 678 mmHg 59%
    10:00 +24°C° 0 mm 2 m/S 678 mmHg 53%
    11:00 +25°C° 0,2 mm 2 m/S 678 mmHg 52%
    12:00 +25°C° 0,2 mm 2 m/S 678 mmHg 52%
    13:00 +26°C° 0,2 mm 2 m/S 678 mmHg 52%
    14:00 +25°C° 1,2 mm 2 m/S 678 mmHg 59%
    15:00 +24°C° 1,2 mm 2 m/S 677 mmHg 65%
    16:00 +23°C° 1,2 mm 2 m/S 677 mmHg 72%
    17:00 +22°C° 1,4 mm 1 m/S 676 mmHg 78%
    18:00 +21°C° 1,4 mm 1 m/S 676 mmHg 84%
    19:00 +19°C° 1,4 mm 1 m/S 676 mmHg 90%
    20:00 +18°C° 0,9 mm 1 m/S 676 mmHg 91%
    21:00 +16°C° 0,9 mm 1 m/S 676 mmHg 92%
    22:00 +15°C° 0,9 mm 1 m/S 676 mmHg 94%
    23:00 +15°C° 0,7 mm 1 m/S 676 mmHg 94%

    30 Mai, Mittwoch

    Zeit Temperatur Niederschläge Wind Luftdruck Luftfeuchtigkeit
    00:00 +14°C° 0,7 mm 1 m/S 675 mmHg 94%
    01:00 +14°C° 0,7 mm 1 m/S 675 mmHg 95%
    02:00 +13°C° 0,1 mm 1 m/S 675 mmHg 94%
    03:00 +13°C° 0,1 mm 1 m/S 675 mmHg 93%
    04:00 +12°C° 0,1 mm 1 m/S 675 mmHg 93%
    05:00 +14°C° 0 mm 1 m/S 675 mmHg 89%
    06:00 +16°C° 0 mm 1 m/S 675 mmHg 84%
    07:00 +19°C° 0 mm 1 m/S 676 mmHg 80%
    08:00 +21°C° 0,1 mm 1 m/S 676 mmHg 72%
    09:00 +22°C° 0,1 mm 1 m/S 676 mmHg 63%
    10:00 +24°C° 0,1 mm 1 m/S 677 mmHg 55%
    11:00 +25°C° 0,4 mm 1 m/S 677 mmHg 55%
    12:00 +25°C° 0,4 mm 2 m/S 676 mmHg 55%
    13:00 +25°C° 0,4 mm 2 m/S 676 mmHg 56%
    14:00 +25°C° 1,4 mm 2 m/S 676 mmHg 61%
    15:00 +24°C° 1,4 mm 2 m/S 676 mmHg 66%
    16:00 +23°C° 1,4 mm 2 m/S 675 mmHg 71%
    17:00 +21°C° 1,1 mm 2 m/S 675 mmHg 77%
    18:00 +21°C° 1,1 mm 1 m/S 675 mmHg 82%
    19:00 +20°C° 1,1 mm 1 m/S 675 mmHg 88%
    20:00 +19°C° 0,4 mm 1 m/S 675 mmHg 90%
    21:00 +18°C° 0,4 mm 1 m/S 675 mmHg 91%
    22:00 +15°C° 0,4 mm 1 m/S 675 mmHg 93%
    23:00 +15°C° 0,6 mm 1 m/S 675 mmHg 93%

    31 Mai, Donnerstag

    Zeit Temperatur Niederschläge Wind Luftdruck Luftfeuchtigkeit
    00:00 +14°C° 0,6 mm 1 m/S 675 mmHg 93%
    01:00 +14°C° 0,6 mm 1 m/S 675 mmHg 94%
    02:00 +14°C° 0,4 mm 1 m/S 675 mmHg 93%
    03:00 +13°C° 0,4 mm 1 m/S 675 mmHg 93%
    04:00 +13°C° 0,4 mm 1 m/S 674 mmHg 93%
    05:00 +14°C° 0,1 mm 1 m/S 675 mmHg 90%
    06:00 +16°C° 0,1 mm 1 m/S 675 mmHg 87%
    07:00 +18°C° 0,1 mm 1 m/S 676 mmHg 83%
    08:00 +20°C° 0,1 mm 1 m/S 676 mmHg 77%
    09:00 +22°C° 0,1 mm 1 m/S 676 mmHg 71%
    10:00 +23°C° 0,1 mm 1 m/S 677 mmHg 65%
    11:00 +23°C° 0,8 mm 1 m/S 676 mmHg 66%
    12:00 +23°C° 0,8 mm 1 m/S 676 mmHg 66%
    13:00 +24°C° 0,8 mm 1 m/S 676 mmHg 67%
    14:00 +23°C° 1,3 mm 1 m/S 676 mmHg 70%
    15:00 +23°C° 1,3 mm 1 m/S 676 mmHg 72%
    16:00 +22°C° 1,3 mm 1 m/S 676 mmHg 75%
    17:00 +21°C° 0,6 mm 1 m/S 676 mmHg 80%
    18:00 +20°C° 0,6 mm 1 m/S 675 mmHg 85%
    19:00 +19°C° 0,6 mm 1 m/S 675 mmHg 90%
    20:00 +19°C° 0,5 mm 1 m/S 676 mmHg 91%
    21:00 +18°C° 0,5 mm 1 m/S 676 mmHg 92%
    22:00 +16°C° 0,5 mm 1 m/S 676 mmHg 93%
    23:00 +15°C° 0,6 mm 1 m/S 676 mmHg 94%

    1 Juni, Freitag

    Zeit Temperatur Niederschläge Wind Luftdruck Luftfeuchtigkeit
    00:00 +15°C° 0,6 mm 1 m/S 676 mmHg 94%
    01:00 +14°C° 0,6 mm 1 m/S 676 mmHg 95%
    02:00 +14°C° 0,6 mm 1 m/S 676 mmHg 95%
    03:00 +14°C° 0,6 mm 1 m/S 676 mmHg 96%
    04:00 +14°C° 0,6 mm 1 m/S 676 mmHg 97%
    05:00 +15°C° 0,3 mm 1 m/S 677 mmHg 95%
    06:00 +15°C° 0,3 mm 1 m/S 677 mmHg 94%
    07:00 +16°C° 0,3 mm 1 m/S 678 mmHg 93%
    08:00 +18°C° 0,5 mm 1 m/S 678 mmHg 91%
    09:00 +18°C° 0,5 mm 1 m/S 678 mmHg 89%
    10:00 +19°C° 0,5 mm 1 m/S 678 mmHg 88%
    11:00 +19°C° 0,7 mm 1 m/S 678 mmHg 85%
    12:00 +20°C° 0,7 mm 1 m/S 678 mmHg 83%
    13:00 +21°C° 0,7 mm 1 m/S 678 mmHg 81%
    14:00 +21°C° 0,9 mm 1 m/S 678 mmHg 80%
    15:00 +21°C° 0,9 mm 1 m/S 678 mmHg 80%
    16:00 +21°C° 0,9 mm 1 m/S 678 mmHg 80%
    17:00 +20°C° 0,6 mm 1 m/S 678 mmHg 84%
    18:00 +17°C° 0,6 mm 0 m/S 678 mmHg 87%
    19:00 +17°C° 0,6 mm 0 m/S 678 mmHg 90%
    20:00 +18°C° 0,4 mm 1 m/S 678 mmHg 91%
    21:00 +16°C° 0,4 mm 1 m/S 678 mmHg 92%
    22:00 +15°C° 0,4 mm 1 m/S 678 mmHg 93%
    23:00 +14°C° 0,4 mm 1 m/S 678 mmHg 92%
    Mehr zeigen